Погода в Рассказово

Россия / Республика Мордовия     53°56′54″N   45°23′00″E
темп.,
°C
ветер,
м/с
пор.,
м/с
влажн.,
%
обл.,
%
осадки,
мм/ч
давл.,
гПа
погр.,
м
20 июня, вс
вс2000:00+15з22885 0.0 102414
03:00+15зсз22890 0.0 102511
06:00+18зсз12800 0.0 102496
09:00+22зсз23700 0.0 1024435
12:00+25зсз33610 0.0 1024916
15:00+26сз23580 0.0 10231167
18:00+26сз12690 0.0 10211037
21:00+20зюз11810 0.0 102211
21 июня, пн
пн2100:00+19з11840 0.0 102211
03:00+17юз11862 0.0 102311
06:00+20юз018241 0.0 102368
09:00+24юз117196 0.0 1023485
12:00+27юз116062 0.0 10231083
15:00+28зсз115577 0.0 10221352
18:00+27ссз116897 0.0 10211198
21:00+21с0079100 0.0 102211
22 июня, вт
вт2200:00+20в118389 0.0 102211
03:00+19вюв008562 0.0 102311
06:00+22вюв1180100 0.0 102360
09:00+25вюв0070100 0.0 1023463
12:00+28зюз01585 0.0 10231404
15:00+29сз115029 0.0 10221730
18:00+28с12674 0.0 1021383
21:00+22св11721 0.0 102211
23 июня, ср
ср2300:00+21ссв11740 0.0 102211
03:00+20всв11780 0.0 102311
06:00+23всв11740 0.0 102364
09:00+26св22640 0.0 1023486
12:00+29с11534 0.0 10221560
15:00+29ссз12485 0.0 10221812
18:00+28с22650 0.0 102158
21:00+22сз01670 0.0 102111
24 июня, чт
чт2400:00+21з11690 0.0 102111
03:00+20зсз11730 0.0 102211
06:00+23з12750 0.0 102184
09:00+27сз23650 0.0 1021452
12:00+29сз22560 0.0 10201189
15:00+30сз12510 0.0 10191890
18:00+30сз01650 0.0 10181424
21:00+23зюз22750 0.0 101811